www.pogodaiklimat.ru

Погода и климат >> Архив погоды >> Россия >> Камчатский край >> Мильково


ПОГОДА в Мильково

  • Прогноз погоды в Мильково
  • Монитор погоды в Мильково

АРХИВ ПОГОДЫ в Мильково

Время (UTC), дата Ветер
(напр.,м/с)
 
Видим.   Явления Облачность Т
(С)
Тd
(С)
f
(%)
Тe
(С)
Тes
(С)
Комфортность P
(гПа)
Po
(гПа)
Тmin
(С)
Tmax
(С)
R
(мм)
R24
(мм)
S
(см)
21 19.03 С 3
{9}
4000 м слаб. ливневой снег 10/10 300 м
[Cb cap]
-13.9 -16.6 80 -20 -20 1003.5 981.6 -13.9 1 95
00 20.03 С 2 4000 м слаб. ливневой снег 10/8 300 м
[Cb cap Ac und]
-13.0 -16.1 77 -18 -17 1002.8 981.0 -14.0
03 20.03 штиль 0 2000 м ливневой снег 10/8 300 м
[Cb cap Ac und]
-11.3 -14.5 77 -11 -11 1001.7 980.0
06 20.03 штиль 0 4000 м слаб. ливневой снег 10/8 300 м
[Cb cap Ac und]
-11.6 -14.0 82 -12 -12 1003.0 981.3
09 20.03 штиль 0
{5}
4000 м слаб. ливневой снег 10/8 300 м
[Cb cap Ac und]
-12.9 -14.6 87 -13 -13 1003.1 981.3 -10.7 3
12 20.03 С 1 10 км слаб. ливневой снег 10/8 300 м
[Cb cap Ac trans]
-13.1 -14.9 86 -15 -15 1003.3 981.4
15 20.03 штиль 0 10 км слаб. ливневой снег 10/8 300 м
[Cb cap Ac trans]
-13.8 -15.6 86 -14 -14 1004.6 982.7
18 20.03 СЗ 1 10 км слаб. ливневой снег 10/6 600 м
[Cb cap Ac trans Ci fib]
-15.9 -17.6 87 -19 -19 1004.8 982.7
21 20.03 З 2
{3}
10 км слаб. ливневой снег 10/6 600 м
[Cb cap Ac trans Ci sp]
-15.9 -18.1 83 -21 -21 1002.9 980.8 -17.3 2 99
00 21.03 З 2 20 км в посл. час ливневой снег 10/5 600 м
[Cb cap Cs]
-11.4 -18.9 54 -16 -13 1001.8 980.1
03 21.03 З 2 50 км 10/4 1000 м
[Sc Ci sp]
-7.3 -18.6 40 -11 -11 1001.3 980.0
06 21.03 СЗ 3 50 км 10/3 1000 м
[Sc Ci sp]
-8.0 -18.9 41 -13 -13 1004.2 982.7
09 21.03 СЗ 1
{6}
20 км 10/3 1000 м
[Sc Ci fib]
-11.5 -20.5 47 -14 -14 1005.8 984.0 -6.8 0.0
12 21.03 З 1 20 км 10/3 1000 м
[Sc Ci fib]
-19.5 -22.9 74 -22 -22 1009.2 986.7
15 21.03 З 1 20 км 10/5 1000 м
[Sc Ci sp]
-14.9 -20.9 60 -17 -17 1010.2 988.0
18 21.03 З 1 20 км 6/4 1000 м
[Sc Ci sp]
-23.5 -25.7 82 -27 -27 1012.3 989.3
21 21.03 штиль 0
{3}
50 км 5/3 1000 м
[Sc Ci fib]
-19.9 -23.3 74 -20 -19 1012.4 989.8 -23.8 97
00 22.03 штиль 0 50 км 8/3 1000 м
[Sc Ci fib]
-9.6 -18.8 47 -10 -4 1011.9 990.1
03 22.03 З 1 50 км 8/0
[Ac trans Ci fib]
-6.9 -16.6 46 -9 -6 1010.8 989.3
06 22.03 В 2 50 км 8/3 1000 м
[Sc Ac trans Ci fib]
-7.7 -15.6 53 -12 -11 1009.6 988.0
09 22.03 СЗ 1
{3}
20 км 10/4 1000 м
[Sc Ci fib]
-13.5 -18.3 67 -16 -16 1008.7 986.7 -4.4
12 22.03 СВ 1 20 км 10/8 600 м
[Cb cap Ac trans]
-10.6 -14.3 74 -13 -13 1007.0 985.3
15 22.03 СВ 1 10 км слаб. ливневой снег 10/10 600 м
[Cb cap]
-8.3 -11.4 78 -11 -11 1004.2 982.7
18 22.03 В 1 10 км слаб. ливневой снег 10/10 600 м
[Cb cap]
-8.5 -10.6 85 -11 -11 1002.8 981.3
21 22.03 СВ 3
{5}
4000 м слаб. ливневой снег 10/10 300 м
[Cb cap]
-8.1 -11.0 80 -14 -14 998.8 977.5 -14.9 0.4 96
00 23.03 В 2 4000 м слаб. ливневой снег 10/10 300 м
[Cb cap]
-5.8 -8.9 79 -10 -10 995.4 974.3
03 23.03 СВ 5 10 км слаб. ливневой снег 10/8 300 м
[Cb cap Ac trans]
-1.7 -8.4 60 -8 -8 991.4 970.7
06 23.03 СВ 4
{11}
2000 м ливневой снег 10/10 300 м
[Cb cap]
-2.4 -3.5 92 -8 -8 988.7 968.0
09 23.03 СВ 7-10
{12}
4000 м слаб. ливневой снег {метель} 10/10 300 м
[Cb cap]
-2.3 -5.6 78 -10 -10 987.3 966.7 -1.7 1
12 23.03 СВ 6
{11}
4000 м слаб. ливневой снег {метель} 10/10 300 м
[Cb cap]
-2.6 -8.5 64 -9 -9 985.9 965.2
15 23.03 СВ 4
{11}
4000 м слаб. ливневой снег 10/10 300 м
[Cb cap]
-4.2 -8.8 70 -10 -10 986.3 965.5
18 23.03 С 2 10 км {ливн. осадки} 10/6 600 м
[Cb cap Ci sp]
-5.2 -8.9 75 -9 -9 987.6 966.7
21 23.03 Ю 1
{11}
10 км осадки на расстоянии 10/8 600 м
[Cb cap Ac und]
-6.1 -9.1 79 -8 -8 988.8 967.9 -7.6 0.3 98
00 24.03 СВ 4 10 км слаб. ливневой снег 10/10 600 м
[Cb cap]
-3.7 -7.2 77 -10 -10 989.1 968.3
03 24.03 СВ 2 20 км осадки на расстоянии {ливн. осадки} 10/6 1000 м
[Cb cap Ac trans]
-2.6 -9.1 61 -6 -6 990.0 969.3
06 24.03 В 4 50 км {ливн. осадки} 10/5 1000 м
[Cb cap Ac trans Ci sp]
-2.8 -10.4 56 -8 -8 989.4 969.3
09 24.03 З 1
{6}
20 км 10/4 1000 м
[Sc Ac trans Ci sp]
-8.9 -12.8 73 -11 -11 990.6 969.3 -2.2 0.0
12 24.03 штиль 0 20 км 6/3 1000 м
[Sc Ci fib]
-14.5 -16.5 85 -15 -15 990.8 969.3
15 24.03 З 1 20 км 6/3 1000 м
[Sc Ci fib]
-14.0 -15.3 90 -16 -16 989.9 968.0
18 24.03 З 1 20 км 4/0
[Ci fib]
-17.4 -19.0 87 -20 -20 988.7 966.7
21 24.03 штиль 0
{2}
50 км 10/3 1000 м
[Sc Ci fib]
-17.4 -19.5 84 -17 -16 987.9 966.0 -19.3 96
00 25.03 В 3 50 км 3/1 1000 м
[Sc Ci fib]
-7.1 -10.9 74 -13 -7 986.8 965.8
03 25.03 В 4 50 км 8/3 1000 м
[Sc Ac trans Ci sp]
-2.9 -11.8 50 -8 -6 985.6 965.3
06 25.03 СВ 5 50 км 10/5 1000 м
[Cb cap Ac trans Ci sp]
-4.5 -14.1 47 -11 -11 987.5 966.7
09 25.03 С 2
{7}
20 км 10/5 1000 м
[Cb cap Ac trans]
-6.2 -13.5 56 -10 -10 989.0 968.0 -2.5
12 25.03 СВ 2 20 км 10/4 1000 м
[Sc Ac trans Ci fib]
-10.8 -17.8 56 -15 -15 989.4 968.0
15 25.03 З 1 20 км 10/4 1000 м
[Sc Ac trans Ci sp]
-17.2 -19.5 82 -20 -20 989.9 968.0
18 25.03 З 1 20 км 4/3 1000 м
[Sc Ci fib]
-19.4 -21.1 86 -22 -22 990.1 968.0
21 25.03 ЮЗ 1
{5}
50 км 10/6 1000 м
[Sc Ci fib]
-17.2 -19.3 84 -20 -19 989.0 967.1 -21.2 95
00 26.03 ЮЗ 1 50 км 6/4 1000 м
[Sc Ci fib]
-4.8 -14.9 45 -6 -1 987.6 966.7
03 26.03 СЗ 4
{10}
50 км 10 баллов -2.5 -15.2 37 -8 -8 987.4 966.7
06 26.03 З 2 50 км 10/6 1000 м
[Sc Ac trans Ci fib]
-3.6 -13.8 45 -7 -7 988.8 968.0
09 26.03 СЗ 2
{10}
20 км 10/6 1000 м
[Sc Ci sp]
-4.7 -13.3 51 -8 -8 990.2 969.3 -2.2
12 26.03 З 1 20 км 10/6 1000 м
[Sc Ci sp]
-8.4 -13.8 65 -11 -11 991.9 970.7
15 26.03 ЮЗ 2 20 км 10 баллов -7.5 -13.9 60 -12 -12 991.9 970.7
18 26.03 ЮЗ 4 20 км 7 баллов -6.4 -14.4 53 -13 -13 993.1 972.0

 

Местоположение метеостанции Мильково (Камчатский край, Россия): широта 54.68 долгота 158.50 высота над уровнем моря 168 м.

В архиве по умолчанию представлена погода в Мильково за последнюю неделю. Архивные данные за месяц целиком и за предыдущие месяцы, начиная с января 2011 года, Вы можете получить, выбрав интересующий диапазон дат из раскрывающегося списка и нажав кнопку "Ввод!".


*Определитесь, кто Вы:
робот инопланетянин человек

Внимание! Время в таблицах - всемирное. Для получения местного времени необходимо прибавить поправку, которая равна 12 ч.

Смотрите также архив погоды в соседних городах и на ближайших метеорологических станциях:

Погода в Долиновке (Камчатский край, Россия) (58 км)
Погода в Пущино (Камчатский край, Россия) (64 км)
Погода в Семячике (Камчатский край, Россия) (110 км)
Погода в Эссо (Камчатский край, Россия) (140 км)
Погода в Козыревске (Камчатский край, Россия) (173 км)
Погода в Соболево (Камчатский край, Россия) (173 км)
Погода в Петропавловск-Камч. 2 (Камчатский край, Россия) (178 км)
Погода в Сосновке (Камчатский край, Россия) (178 км)
Погода в Начиках (Камчатский край, Россия) (181 км)
Погода в Петропавловском Маяке (Камчатский край, Россия) (201 км)

Пояснения к столбцам:

Ветер - указаны скорость ветра в м/с - средняя за 10 мин, порывы в срок и между сроками (в фигурных скобках) и направление, откуда дует ветер: С - северный, СВ - северо-восточный, В - восточный, ЮВ - юго-восточный, Ю - южный, ЮЗ - юго-западный, З - западный, СЗ - северо-западный.
Видимость - горизонтальная дальность видимости в метрах или километрах. При видимости от 1 до 10 км при отсутствии осадков обычно наблюдается дымка, при ухудшении видимости до 1 км и менее - туман. В сухую погоду видимость может ухудшаться дымом, пылью или мглою.
Явления - указаны атмосферные явления, наблюдавшиеся в срок или в последний час перед сроком; фигурными скобками обозначены явления, наблюдавшиеся между сроками (за 1-3 часа до срока); квадратными скобками обозначены град или гололедные отложения с указанием их диаметра в мм.
Облачность - указаны через наклонную черту общая и нижняя облачность в баллах и высота нижней границы облаков в метрах; квадратными скобками обозначены формы облаков: Ci - перистые, Cs - перисто-слоистые, Cc - перисто-кучевые, Ac - высококучевые, As - высокослоистые, Sc - слоисто-кучевые, Ns - слоисто-дождевые, Cu - кучевые, Cb - кучево-дождевые. Подробнее классификацию облаков см. в Атласе облаков (PDF).
T - Температура воздуха - температура, измеренная на высоте 2 м над землей.
Td - Температура точки росы - температура, при понижении до которой содержащийся в воздухе водяной пар достигнет насыщения.
f - Относительная влажность воздуха - влажноcть воздуха, измеренная на высоте 2 м над землей.
Te - Эффективная температура - температура, которую ощущает одетый по сезону человек в тени. Характеристика душности погоды. При расчете учитывается влияние влажности воздуха и скорости ветра на теплоощущения человека.
Tes - Эффективная температура на солнце - температура, которую ощущает человек, с поправкой на солнечный нагрев. Характеристика знойности погоды. Зависит от высоты солнца над горизонтом, облачности и скорости ветра. Ночью, в пасмурную погоду, а также при ветре 12 м/с и более поправка равна нулю.
P - Атмосферное давление - приведенное к уровню моря атмосферное давление.
Po - Атмосферное давление - измеренное на уровне метеостанции атмосферное давление.
Tmin - Минимальная температура - минимум температуры воздуха на высоте 2 м над землей.
Tmax - Максимальная температура - максимум температуры воздуха на высоте 2 м над землей.
R - Количество осадков - Количество выпавших осадков за период времени, мм. При наведении курсора мыши на число - период времени, за который выпало указанное количество осадков.
R24 - Количество осадков - Количество выпавших осадков за 24 часа, мм.
S - Снежный покров - Высота снежного покрова, см. При наведении курсора мыши на число - состояние снежного покрова и степень покрытия местности в баллах.